Location: Lussan
(44.1516°N, 4.3650°E)
Time: 05:06:38
(UTC+00:00)

Daily predictions for brighter satellites

Satellite Brightness Start Highest point End
(mag) Time Altitude Azimuth Time Altitude Azimuth Time Altitude Azimuth
Cosmos 2322 Rocket 2.6 00:05:15 46° WSW 00:06:28 55° WNW 00:12:00 10° NNE
Okean 1-7 4.1 00:06:47 35° WNW 00:06:47 35° WNW 00:10:41 10° N
USA 267 3.8 00:10:31 37° WSW 00:10:31 37° WSW 00:16:04 10° WNW
ALOS 2 4.4 00:11:03 21° WNW 00:11:03 21° WNW 00:13:41 10° NW
Cosmos 923 Rocket 4.3 00:05:07 10° NNW 00:10:11 53° W 00:10:11 53° W
Cosmos 1818 4.1 00:05:21 10° NNW 00:10:44 56° NE 00:12:49 35° ESE
Cosmos 1242 Rocket 4.1 00:08:19 10° N 00:11:04 32° NE 00:11:04 32° NE
ATLAS CENTAUR R/B 3.0 00:09:18 10° NNW 00:13:51 37° NE 00:16:20 22° E
Cosmos 2151 Rocket 4.4 00:11:25 10° N 00:15:35 41° ENE 00:15:52 40° E
Cosmos 1782 Rocket 4.5 00:14:53 10° NNW 00:18:18 39° WNW 00:18:18 39° WNW
Cosmos 372 Rocket 3.8 00:19:41 78° SSE 00:19:54 80° ESE 00:25:04 10° NNE
ADEOS Rocket 3.4 00:20:35 38° WSW 00:20:47 38° W 00:26:04 10° NNW
Okean 2 Rocket 3.5 00:16:58 10° N 00:21:25 56° ENE 00:21:36 55° E
Cosmos 1378 Rocket 4.5 00:25:43 38° E 00:25:47 38° E 00:29:54 10° NNE
Cosmos 1953 4.1 00:23:18 10° NNE 00:26:38 24° ENE 00:27:20 23° E
Cosmos 1844 Rocket 2.7 00:21:43 10° NNW 00:27:11 57° WSW 00:27:18 57° WSW
Meteor 1-21 4.2 00:26:51 63° S 00:27:50 86° E 00:33:41 10° NNE
Cosmos 1844 3.6 00:22:36 10° NNW 00:28:22 68° WSW 00:28:57 63° SSW
Cosmos 1937 Rocket 3.7 00:29:41 55° W 00:30:22 60° WNW 00:35:35 10° NNE
Cosmos 2112 Rocket 4.2 00:25:57 10° NNW 00:31:08 55° WSW 00:31:08 55° WSW
Cosmos 1758 3.6 00:30:02 10° N 00:33:27 64° N 00:33:27 64° N
Cosmos 1680 Rocket 4.0 00:29:29 10° NNW 00:34:17 43° W 00:34:17 43° W
Cosmos 1674 3.3 00:36:19 54° NNE 00:36:19 54° NNE 00:39:18 10° N
Sich 1 Rocket 3.5 00:31:40 10° N 00:35:48 76° NW 00:35:48 76° NW
Resurs 1-4 Rocket 3.3 00:33:20 10° NE 00:37:59 31° E 00:39:19 27° ESE
Cosmos 1470 4.1 00:34:39 10° NNW 00:37:14 32° NW 00:37:14 32° NW
Okean 2 3.5 00:39:06 70° N 00:39:06 70° N 00:42:45 10° N
Cosmos 2219 Rocket 2.0 00:39:12 64° S 00:40:03 79° ESE 00:45:40 10° NNE
SL-08 ROCKET BODY 4.5 00:34:18 10° NNW 00:40:05 56° W 00:40:56 51° SW
Cosmos 1707 3.5 00:40:54 44° NW 00:40:54 44° NW 00:44:03 10° N
CZ-4C R/B 3.6 00:33:48 10° NNW 00:40:49 55° NE 00:49:04 10° ESE
SL-16 R/B 3.9 00:38:30 17° W 00:41:24 25° NW 00:46:01 10° N
Cosmos 220 Rocket 4.4 00:44:38 50° E 00:44:38 50° E 00:48:30 10° NNE
COSMOS 2428 2.8 00:44:03 53° SSE 00:45:03 61° ESE 00:50:40 10° NNE
NOSS 3-1 (C) 4.2 00:38:13 10° NW 00:45:44 79° NE 00:54:36 10° SE
Cosmos 1437 Rocket 3.8 00:42:50 10° N 00:46:21 36° ENE 00:46:36 36° E
Cosmos 1300 Rocket 4.4 00:42:44 10° NNW 00:46:12 38° WNW 00:46:12 38° WNW
ATLAS 3B R/B 3.4 00:41:29 10° NW 00:48:10 37° WSW 00:48:51 36° SW
ASTEX 1 4.0 00:44:01 10° N 00:48:38 42° WNW 00:49:02 41° W
MOZ.5/SAFIR/RUBIN 5/SL-8 3.7 00:53:59 66° SSE 00:54:39 84° ENE 00:59:23 10° NNW
Cosmos 1626 2.6 00:55:39 56° NNW 00:55:39 56° NNW 00:58:41 10° N
S3M 4.0 00:54:26 46° S 00:56:30 80° E 01:02:55 10° N
Cosmos 2237 Rocket 3.5 00:57:20 25° SE 00:59:06 29° ESE 01:03:57 10° NE
Cosmos 1553 Rocket 4.2 01:02:58 44° SW 01:04:34 57° WNW 01:10:37 10° N
ADEOS II 3.5 01:01:53 10° NE 01:06:26 29° E 01:08:46 21° SE
Cosmos 405 Rocket 2.7 01:10:48 70° NNW 01:10:48 70° NNW 01:14:12 10° N
Cosmos 2221 Rocket 4.1 01:10:52 43° W 01:11:04 43° WNW 01:15:18 10° N
Cosmos 1300 3.5 01:07:32 10° N 01:11:10 43° ENE 01:11:51 39° ESE
Cosmos 1386 Rocket 4.3 01:06:15 10° NNW 01:12:15 72° W 01:14:07 45° SSW
Okean 1 Rocket 2.9 01:11:46 10° N 01:16:11 88° W 01:16:47 67° S
Cosmos 2360 Rocket 3.7 01:13:37 19° W 01:16:12 27° NW 01:20:58 10° N
IDEFIX/ARIANE 42P 4.0 01:13:32 10° NE 01:18:10 30° E 01:20:54 19° SE
Cosmos 1238 Rocket 4.3 01:16:03 10° NNW 01:17:10 19° NW 01:17:10 19° NW
ATLAS 5 CENTAUR R/B 2.5 01:08:26 10° NW 01:18:49 67° WSW 01:19:49 51° S
Cosmos 1461 3.3 01:16:46 10° NNW 01:20:54 62° NE 01:23:29 23° SE
Cosmos 1908 4.1 01:17:40 10° NNW 01:20:34 36° WNW 01:20:34 36° WNW
Meteor 2-10 Rocket 4.2 01:17:56 10° N 01:23:38 58° ENE 01:27:14 22° SSE
CZ-2D R/B 2.1 01:23:13 10° NNE 01:28:40 83° ESE 01:30:34 42° S
Cosmos 2278 Rocket 2.5 01:23:09 10° NNW 01:28:49 66° ENE 01:34:20 11° SE
Cosmos 1867 3.5 01:30:59 44° SW 01:32:47 83° NW 01:38:18 10° NNE
SME Rocket 3.0 01:32:57 53° WSW 01:32:59 53° WSW 01:37:09 10° NNW
USA 305 4.2 01:33:23 25° SE 01:33:32 25° SE 01:36:59 10° ENE
Cosmos 1048 Rocket 3.9 01:29:43 10° NNW 01:34:52 67° WSW 01:36:29 42° S
Cosmos 2333 Rocket 3.4 01:33:18 23° W 01:35:47 32° NW 01:40:53 10° N
Cosmos 1125 Rocket 3.4 01:37:42 44° SSW 01:39:25 86° WNW 01:44:39 10° NNE
Cosmos 1745 Rocket 4.4 01:35:40 10° NNW 01:41:33 45° W 01:43:37 34° SW
SL-16 R/B 2.5 01:37:47 25° SSE 01:41:40 85° WSW 01:47:56 10° NNW
YAOGAN 11 4.2 01:39:55 33° SSE 01:41:52 78° ENE 01:46:20 10° N
SL-16 R/B 4.1 01:38:15 11° SSE 01:42:10 22° E 01:46:22 10° NE
Thor Agena Rocket 4.4 01:39:23 10° N 01:44:13 38° WNW 01:46:03 29° WSW
Cosmos 1943 Rocket 4.2 01:40:38 10° N 01:45:30 28° NE 01:50:20 10° ESE
Cosmos 2298 Rocket 4.0 01:45:28 39° SW 01:47:24 73° WNW 01:52:43 10° NNE
EO 1 Del DPAF 3.7 01:44:19 10° NNE 01:47:44 46° E 01:48:38 36° SE
USA 290 3.5 01:48:51 29° WNW 01:48:51 29° WNW 01:51:42 10° N
Cosmos 1980 3.7 01:46:55 35° SSW 01:49:24 79° ESE 01:55:04 10° NNE
ATLAS CENTAUR R/B 2.5 01:48:18 10° NW 01:52:17 32° WSW 01:52:17 32° WSW
SL-14 R/B 4.2 01:56:23 32° W 01:56:52 33° WNW 02:00:26 10° N
AQUA 3.7 01:52:46 10° NNE 01:57:34 82° WNW 01:59:34 35° SSW
Cosmos 494 Rocket 4.2 01:52:42 10° NNW 01:57:35 46° WSW 01:59:08 35° SSW
USA 229 DEB 3.9 01:51:13 10° NW 01:58:40 85° SW 02:06:34 10° SSE
USA 229 3.9 01:51:19 10° NW 01:58:45 85° SW 02:06:39 10° SSE
OE (NEXTSAT) 4.3 01:57:23 30° WNW 01:58:53 74° NNE 02:02:12 10° E
Cosmos 1455 Rocket 3.0 01:56:15 10° N 02:00:45 85° W 02:03:00 29° S
Cosmos 1953 3.5 01:59:33 10° NNW 02:02:54 25° W 02:02:56 25° W
IRS-1D 4.4 01:58:15 10° NNE 02:03:25 47° E 02:07:27 16° SSE
GP-B 4.1 01:59:55 10° NNW 02:03:49 31° W 02:04:48 28° WSW
Helios 1A 2.9 02:02:52 23° SSE 02:05:24 86° ENE 02:09:39 10° NNW
NOSS 2-2 (C) 4.3 02:00:39 10° NW 02:05:54 85° SW 02:13:21 10° SSE
Cosmos 371 Rocket 3.6 02:04:37 32° SW 02:06:35 54° WNW 02:11:23 10° NNE
MSX 4.1 02:01:52 10° NNE 02:07:36 65° ESE 02:11:46 19° S
UNK 3.9 02:07:23 33° SSW 02:09:09 52° W 02:13:39 10° NNW
NPP 4.0 02:05:11 10° N 02:10:25 52° WNW 02:13:05 27° SW
Meteor 1-28 Rocket 3.1 02:10:52 33° S 02:12:26 72° W 02:16:11 10° NNW
Cosmos 1975 Rocket 3.2 02:11:29 34° SW 02:13:13 59° W 02:17:37 10° N
USA 306 3.2 02:13:37 33° SSW 02:15:09 52° SE 02:19:13 10° ENE
USA 307 3.4 02:13:44 30° S 02:15:16 45° SE 02:19:17 10° ENE
Resurs 1-4 Rocket 2.9 02:13:01 10° N 02:17:49 37° WNW 02:20:23 23° WSW
Cosmos 2219 Rocket 4.0 02:20:54 11° W 02:24:40 19° NW 02:28:39 10° N
NOSS 3-1 (A) 4.3 02:17:49 10° NW 02:25:16 53° WSW 02:33:48 10° S
Helios 1B rocket 3.8 02:21:58 10° NNE 02:25:41 34° E 02:29:24 10° SSE
Cosmos 2074 Rocket 4.0 02:19:43 10° N 02:26:03 88° WSW 02:32:20 10° S
NOSS 0 Rocket 4.5 02:22:49 22° WSW 02:26:41 49° WNW 02:32:45 10° NNE
MOS 1 Rocket 3.6 02:26:10 27° SW 02:27:56 39° W 02:31:57 10° NNW
FALCON 9 R/B 4.4 02:03:12 10° W 02:28:25 43° SW 02:35:46 10° SE
CZ-4C R/B 3.4 02:22:26 10° NW 02:29:31 44° WSW 02:37:32 10° S
COSMOS 2428 4.3 02:26:02 13° W 02:29:44 24° NW 02:34:18 10° N
SeaSat 1 4.1 02:27:07 10° NE 02:31:16 27° ESE 02:35:23 10° SSE
Cosmos 304 Rocket 4.2 02:30:28 24° SW 02:33:07 49° WNW 02:37:49 10° N
Cosmos 2184 Rocket 4.0 02:27:36 10° N 02:33:55 80° W 02:40:07 10° S
CZ-2C R/B 4.2 02:30:24 10° NE 02:34:55 30° E 02:39:20 10° SSE
Cosmos 1269 Rocket 4.0 02:32:50 10° NNW 02:38:09 86° WSW 02:43:25 10° SSE
Cosmos 1455 2.0 02:38:47 10° NNW 02:42:29 77° W 02:45:55 12° S
Cosmos 2237 Rocket 2.8 02:39:10 19° WSW 02:42:56 45° WNW 02:48:25 10° NNE
Cosmos 1025 Rocket 3.9 02:41:57 21° SW 02:44:11 34° WNW 02:48:10 10° N
USA 308 2.8 02:42:41 22° SW 02:45:18 77° SE 02:49:31 10° NE
BREEZE-M DEB (TANK) 4.3 02:34:43 10° W 02:45:30 55° NNW 02:48:57 10° ENE
Cosmos 2084 Rocket 3.6 02:43:24 19° SSW 02:45:57 54° ESE 02:49:40 10° NE
Cosmos 1544 Rocket 3.7 02:41:49 10° NNW 02:46:09 53° W 02:49:52 13° SSW
ADEOS II 2.8 02:41:21 10° N 02:46:11 38° WNW 02:49:41 17° SW
Cosmos 1703 4.1 02:42:38 10° S 02:46:26 49° E 02:50:15 10° NNE
Lacrosse 5 2.6 02:48:06 14° SSW 02:52:07 44° SE 02:56:57 10° ENE
Cosmos 2297 4.1 02:48:48 10° NNW 02:54:34 70° ENE 03:00:17 10° SSE
IDEFIX/ARIANE 42P 3.4 02:52:56 10° N 02:57:45 37° WNW 03:01:42 14° SW
Cosmos 614 Rocket 4.5 02:53:09 10° NNW 02:58:19 64° ENE 03:03:29 10° SSE
Cosmos 292 Rocket 4.4 02:59:44 10° S 03:04:27 57° ESE 03:09:10 10° NNE
CZ-2D R/B 4.1 03:04:51 10° NNW 03:07:59 16° WNW 03:11:05 10° W
Cosmos 2278 Rocket 3.6 03:08:26 10° NW 03:12:19 19° W 03:16:04 10° SW
USA 305 3.2 03:09:06 12° WSW 03:12:51 59° NNW 03:17:00 10° NE
ERBS 2.3 03:14:11 14° WSW 03:16:43 61° NW 03:19:47 10° NE
Nadezhda 1 Rocket 4.3 03:15:44 10° SSW 03:21:56 52° WNW 03:28:07 10° N
FENGYUN 3A 3.7 03:20:06 10° NNE 03:25:30 82° WNW 03:30:53 10° SSW
SL-16 R/B 2.4 03:20:14 10° SW 03:25:47 58° WNW 03:31:25 10° NNE
SL-16 R/B 4.2 03:23:14 10° WSW 03:26:08 13° W 03:29:03 10° WNW
Cosmos 2341 Rocket 4.1 03:20:07 10° N 03:26:33 89° E 03:32:56 10° S
CZ-2D R/B 4.2 03:23:47 10° NNE 03:27:48 52° E 03:31:42 10° S
Cosmos 1943 Rocket 2.4 03:24:02 10° NW 03:29:30 51° WSW 03:34:57 10° S
COSMOS 2455 3.0 03:24:22 10° SSW 03:30:23 77° ESE 03:36:26 10° NNE
Cosmos 2369 Rocket 2.7 03:26:09 10° NNW 03:31:45 68° ENE 03:37:18 10° SE
Meteor 2-1 Rocket 4.4 03:26:26 10° N 03:32:18 89° ENE 03:38:00 10° S
Cosmos 2058 Rocket 4.4 03:28:31 10° N 03:32:45 43° ENE 03:36:55 10° SSE
[s.n.52588] 4.2 03:35:53 10° SSW 03:38:17 26° SE 03:40:42 10° ENE
[s.n.52587] 4.2 03:35:59 10° SSW 03:38:23 27° SE 03:40:49 10° ENE
[s.n.52585] 4.2 03:36:04 10° SSW 03:38:28 27° SE 03:40:53 10° ENE
[s.n.52586] 4.2 03:36:09 10° SSW 03:38:33 27° SE 03:40:58 10° ENE
[s.n.52583] 4.2 03:36:13 10° SSW 03:38:38 27° SE 03:41:04 10° ENE
[s.n.52581] 4.2 03:36:19 10° SSW 03:38:43 27° SE 03:41:08 10° ENE
[s.n.52584] 4.2 03:36:24 10° SSW 03:38:49 27° SE 03:41:14 10° ENE
[s.n.52579] 4.2 03:36:29 10° SSW 03:38:54 27° SE 03:41:20 10° ENE
[s.n.52582] 4.2 03:36:34 10° SSW 03:38:59 27° SE 03:41:25 10° ENE
[s.n.52580] 4.2 03:36:39 10° SSW 03:39:03 27° SE 03:41:29 10° ENE
[s.n.52577] 4.2 03:36:44 10° SSW 03:39:09 27° SE 03:41:36 10° ENE
[s.n.52575] 4.2 03:36:49 10° SSW 03:39:14 27° SE 03:41:40 10° ENE
[s.n.52578] 4.2 03:36:54 10° SSW 03:39:20 27° SE 03:41:46 10° ENE
[s.n.52570] 4.2 03:37:00 10° SSW 03:39:25 27° SE 03:41:51 10° ENE
[s.n.52576] 4.2 03:37:04 10° SSW 03:39:29 27° SE 03:41:56 10° ENE
ARIANE 5 R/B 2.5 03:34:29 10° NNE 03:39:38 86° WNW 03:44:39 10° SSW
